Погода в Пригородном

Россия / Калининградская область     54°38′11″N   22°36′20″E
темп.,
°C
ветер,
м/с
пор.,
м/с
влажн.,
%
обл.,
%
осадки,
мм/ч
давл.,
гПа
погр.,
м
9 мая, вс
вс923:00+2з22943 0.0 101832
02:00+1зюз22955 0.0 102026
05:00+1юз339599 0.0 102051
08:00+6ю347579 0.0 1021310
11:00+11ю565465 0.0 10201291
14:00+13ю685196 0.0 10191870
17:00+11ююв41168100 0.0 1018441
20:00+11ююв5127237 0.0 1017435
10 мая, пн
пн1023:00+12ю61467100 0.0 1017483
02:00+12ю61569100 0.0 1017447
05:00+10ю514795 0.0 1017343
08:00+14ю613735 0.0 1018452
11:00+18ю711605 0.0 1018822
14:00+21ю710565 0.0 10181182
17:00+21ю610625 0.0 10171189
20:00+15юв4882100 0.0 1018158
11 мая, вт
вт1123:00+14юв51378100 0.0 1019418
02:00+12юв5148277 0.0 1019386
05:00+11юв61578100 0.0 1019414
08:00+15юв7157131 0.0 1019608
11:00+19юв812595 0.0 1019940
14:00+21юв811575 0.0 10181167
17:00+19юв712595 0.0 10171036
20:00+14вюв411720 0.0 1017297
12 мая, ср
ср1223:00+12вюв514735 0.0 1018367
02:00+10вюв514820 0.0 1017388
05:00+10вюв413872 0.0 1017298
08:00+15вюв612785 0.0 1016511
11:00+19вюв811620 0.0 10161144
14:00+19вюв811490 0.0 10161476
17:00+18вюв6105976 0.0 10151488
20:00+13вюв4107449 0.0 1014271
13 мая, чт
чт1323:00+10в367988 0.0 101392
02:00+11юв0072100 0.0 101011
05:00+11зсз2380100 0.1 100774
08:00+10з2497100 3.8 1004181
11:00+11ююз5695100 0.7 1003433
14:00+10ю61086100 0.9 1004519
17:00+12юв41085100 0.0 1004609
20:00+12юв498794 0.2 1004447